カタログに戻る

STARLINK-31081

運用中通信VLEO
NORAD 58632·PAYLOAD·🇺🇸 United States

打ち上げ Dec 23, 2023 から Cape Canaveral Space Force Station

Loading…

次のパス (今後24時間)

TLE

最新Source: CelesTrak SupGP

元期: Sep 15, 2026, 02:42 UTC

1 58632C 23203Q   26258.11298611 -.00009675  00000+0 -35039-3 0  2585
2 58632  42.9994  80.8020 0001518 269.5535 347.5486 15.27586128    14

AllMySatでSTARLINK-31081をリアルタイム追跡

Download on the App Store